Flag for Canada Weather past 2 weeks in London, Ontario, Canada

Now
72 °F

Broken clouds.


Feels Like: 76 °F
Forecast: 51 / 77 °F
Wind: 8 mph from North

Location: London Weather Station

Current Time: Jul 4, 2015 at 12:15:04 PM

Latest Report: Jul 4, 2015 at 11:00 AM


Visibility: 15 mi

Pressure: 29.98 "Hg

Humidity: 57%

Dew point: 55 °F

Location of LondonLocation

Historic Weather in London — Graph

°F

London temperature yesterday

Maximum temperature yesterday: 72 °F (at 2:00 PM)
Minimum temperature yesterday: 48 °F (at 5:00 AM)
Average temperature yesterday: 62 °F

Past Weeks' High & Low Weather Summary

 TemperatureHumidityPressure
High81 °F (Jun 22, 1:00 PM)100% (Jun 20, 2:00 AM)30.15 "Hg (Jun 20, 2:00 AM)
Low48 °F (Jul 3, 5:00 AM)39% (Jun 24, 3:00 PM)29.67 "Hg (Jun 23, 5:00 AM)
Average64 °F79%29.92 "Hg
* Reported Jun 19 11:00 AM — Jul 4 11:00 AM, London, Weather by CustomWeather, © 2015

Note: Actual official high and low records may vary slightly from our data, if they occured in-between our weather recording intervals... More about our weather records

Advertising

London weather history for previous 24 hours

 ConditionsComfort  
Time TempWeatherWind HumidityBarometerVisibility
11:00 AM
Sat, Jul 4
72 °FBroken clouds.8 mph57%29.98 "Hg15 mi
10:00 AM68 °FScattered clouds.3 mph64%29.98 "Hg15 mi
9:00 AM64 °FPassing clouds.2 mph73%29.97 "Hg15 mi
8:00 AM59 °FScattered clouds.No wind77%29.96 "Hg15 mi
7:00 AM54 °FFog.3 mph94%29.95 "Hg15 mi
6:00 AM50 °FFog.3 mph94%29.93 "Hg15 mi
5:00 AM50 °FPassing clouds.No wind100%29.93 "Hg10 mi
4:00 AM50 °FClear.2 mph100%29.93 "Hg15 mi
3:00 AM52 °FClear.5 mph94%29.93 "Hg15 mi
2:00 AM55 °FClear.3 mph88%29.93 "Hg15 mi
1:00 AM57 °FClear.5 mph88%29.94 "Hg15 mi
12:00 AM57 °FPassing clouds.3 mph88%29.93 "Hg15 mi
11:00 PM
Fri, Jul 3
57 °FPassing clouds.5 mph88%29.94 "Hg15 mi
10:00 PM59 °FBroken clouds.5 mph88%29.93 "Hg15 mi
9:00 PM64 °FBroken clouds.3 mph73%29.92 "Hg15 mi
8:00 PM68 °FBroken clouds.3 mph64%29.93 "Hg15 mi
7:00 PM72 °FBroken clouds.3 mph50%29.93 "Hg15 mi
6:00 PM72 °FPartly sunny.No wind47%29.95 "Hg15 mi
5:00 PM72 °FPartly sunny.2 mph47%29.96 "Hg15 mi
4:00 PM72 °FPartly sunny.3 mph47%29.97 "Hg15 mi
3:00 PM70 °FPartly sunny.No wind46%29.99 "Hg15 mi
2:00 PM72 °FBroken clouds.5 mph47%29.99 "Hg15 mi
1:00 PM70 °FPartly sunny.6 mph53%29.99 "Hg15 mi
12:00 PM70 °FPartly sunny.5 mph50%30.01 "Hg15 mi
Weather by CustomWeather, © 2015

See weather overviewHow to use our weather pages